Alamosa, CO

6:28 AM MST on November 14, 2019 (GMT -0700)
San Luis Valley Regional / Bergman Field

Weather History for KALS - October, 2019

Change the Weather History Date:

Monday, October 21, 2019

  Actual Average Record
Temperature  
Mean Temperature 28 °F 41 °F  
Max Temperature 48 °F 60 °F 76 °F (2003)
Min Temperature 8 °F 23 °F 3 °F (1996)
Degree Days  
Heating Degree Days 37 24  
Month to date heating degree days 467 418  
Since 1 July heating degree days 723 849  
Cooling Degree Days 0 0  
Month to date cooling degree days 0 0  
Year to date cooling degree days 72 51  
Moisture  
Dew Point 6 °F    
Average Humidity 41    
Maximum Humidity 64    
Minimum Humidity 17    
Precipitation  
Precipitation 0.00 in 0.02 in 0.63 in (2009)
Month to date precipitation 0.00 0.47  
Year to date precipitation 6.78 6.33  
Snow  
Snow 0.00 in 0.10 in 4.20 in (2009)
Month to date snowfall 0.0 1.0  
Since 1 July snowfall 0.0 1.0  
Since 1 September snowfall 0.0 1.0  
Snow Depth 0.00 in    
Sea Level Pressure  
Sea Level Pressure 30.15 in    
Wind  
Wind Speed 9 mph (NW)    
Max Wind Speed 32 mph    
Max Gust Speed 46 mph    
Visibility 10 miles    
Events      
T = Trace of Precipitation, MM = Missing Value Source: NWS Daily Summary

Daily Weather History Graph

Daily Weather History Graph

Search for Another Location

Airport or City:

Astronomy

Oct. 21, 2019 Rise Set
Actual Time 7:17 AM MDT 6:18 PM MDT
Civil Twilight 6:50 AM MDT 6:45 PM MDT
Nautical Twilight 6:20 AM MDT 7:15 PM MDT
Astronomical Twilight 5:49 AM MDT 7:45 PM MDT
Moon No Moon Rise 2:33 PM MDT (10/21)
Length of Visible Light 11h 54m
Length of Day
11h 01m
Waning Gibbous, 47% of the Moon is Illuminated
Oct 21
Waning Gibbous
Oct 27
New
Nov 4
First Quarter
Nov 12
Full
Nov 19
Last Quarter

Hourly Weather History & Observations

Time (MDT) Temp. Windchill Dew Point Humidity Pressure Visibility Wind Dir Wind Speed Gust Speed Precip Events Conditions
12:52 AM 19.0 °F 13.9 °F 6.1 °F 57% 30.02 in 10.0 mi WNW 3.5 mph - N/A   Clear
1:52 AM 14.0 °F 6.5 °F 1.9 °F 59% 30.05 in 10.0 mi SSW 4.6 mph - N/A   Clear
2:52 AM 10.9 °F - 1.0 °F 64% 30.05 in 10.0 mi Calm Calm - N/A   Clear
3:52 AM 9.0 °F -0.9 °F -0.9 °F 64% 30.07 in 10.0 mi WSW 5.8 mph - N/A   Clear
4:52 AM 16.0 °F 10.4 °F 3.9 °F 59% 30.06 in 10.0 mi West 3.5 mph - N/A   Clear
5:52 AM 12.9 °F 6.9 °F 1.0 °F 59% 30.09 in 10.0 mi WSW 3.5 mph - N/A   Clear
6:52 AM 12.0 °F 5.9 °F -0.0 °F 59% 30.12 in 10.0 mi WNW 3.5 mph - N/A   Clear
7:52 AM 10.9 °F 2.9 °F -0.9 °F 59% 30.14 in 10.0 mi ESE 4.6 mph - N/A   Mostly Cloudy
8:52 AM 23.0 °F 14.7 °F 5.0 °F 46% 30.14 in 10.0 mi SSW 6.9 mph - N/A   Partly Cloudy
10:52 AM 35.1 °F 31.0 °F 6.1 °F 30% 30.12 in 10.0 mi ENE 4.6 mph - N/A   Mostly Cloudy
11:52 AM 37.0 °F 34.5 °F 8.1 °F 30% 30.12 in 10.0 mi East 3.5 mph - N/A   Overcast
12:52 PM 42.1 °F 37.7 °F 8.1 °F 25% 30.08 in 10.0 mi SSE 6.9 mph - N/A   Scattered Clouds
1:52 PM 46.9 °F - 7.0 °F 20% 30.08 in 10.0 mi NW 25.3 mph 40.3 mph N/A   Scattered Clouds
2:52 PM 46.0 °F 37.2 °F 5.0 °F 19% 30.11 in 10.0 mi NNW 26.5 mph 42.6 mph N/A   Clear
3:52 PM 46.0 °F 37.0 °F 3.9 °F 18% 30.14 in 6.0 mi NNW 27.6 mph 42.6 mph N/A   Haze
4:52 PM 45.0 °F 36.4 °F 5.0 °F 19% 30.13 in 10.0 mi NNW 23.0 mph 32.2 mph N/A   Clear
5:52 PM 42.1 °F 33.1 °F 7.0 °F 24% 30.20 in 10.0 mi North 20.7 mph 33.4 mph N/A   Clear
6:52 PM 37.9 °F 28.5 °F 10.0 °F 32% 30.25 in 10.0 mi North 17.3 mph - N/A   Clear
7:52 PM 33.1 °F 28.7 °F 12.0 °F 42% 30.32 in 10.0 mi NE 4.6 mph - N/A   Clear
8:52 PM 32.0 °F 24.8 °F 12.9 °F 45% 30.29 in 10.0 mi NE 8.1 mph - N/A   Clear
9:52 PM 28.0 °F 22.8 °F 12.0 °F 51% 30.26 in 10.0 mi NNE 4.6 mph - N/A   Clear
10:52 PM 23.0 °F 17.0 °F 10.0 °F 58% 30.30 in 10.0 mi West 4.6 mph - N/A   Clear
11:52 PM 21.9 °F 14.5 °F 10.0 °F 60% 30.31 in 10.0 mi SSW 5.8 mph - N/A   Clear